Volver al catálogo

STARLINK-35063

ActivoComunicacionesSSO
NORAD 65528·PAYLOAD·🇺🇸 United States

Lanzado Sep 6, 2025 desde Cape Canaveral Space Force Station

Loading…

Próximos Pases (próximas 24 horas)

TLE

ActualizadoSource: CelesTrak SupGP

Época: Sep 14, 2026, 22:40 UTC

1 65528C 25200J   26257.94493056  .00016064  00000+0  49856-3 0  2575
2 65528  97.2843 324.4212 0001392  92.2959 147.3606 15.33438134    13

Sigue STARLINK-35063 en tiempo real con AllMySat

Download on the App Store